Location: ??????
(55.7522°N, 37.6156°E)
Time: 17:34:29
(UTC+00:00)

Cosmos 1844 - Pass Details

Date: 14 June 2025
Orbit: 822 x 866 km, 70.9° (Epoch: 12 July)

Event Time Altitude Azimuth Distance (km) Brightness Sun altitude
Exits shadow 21:18:06 13° 195° (SSW) 2,212 5.3 -10.9°
Maximum altitude 21:22:59 61° 117° (ESE) 935 3.8 -10.9°
Drops below altitude 10° 21:28:27 10° 39° (NE) 2,435 6.9 -10.9°
Sets 21:30:55 0° 36° (NE) 3,375 7.8 -10.9°
